Time,TemperatureF,DewpointF,PressureIn,WindDirection,WindDirectionDegrees,WindSpeedMPH,WindSpeedGustMPH,Humidity,HourlyPrecipIn,Conditions,Clouds,dailyrainin,SolarRadiationWatts/m^2,SoftwareType,DateUTC
2013-11-11 00:01:00,46.5,-7.1,30.05,West,279,0.0,1.0,10,0.00,,,0.00,0,WeatherCatV1.23B16,2013-11-11 08:01:00,
2013-11-11 00:06:00,46.7,-5.0,30.05,West,279,0.0,0.0,11,0.00,,,0.00,0,WeatherCatV1.23B16,2013-11-11 08:06:00,
2013-11-11 00:11:00,46.7,-6.9,30.05,West,279,0.0,0.0,10,0.00,,,0.00,0,WeatherCatV1.23B16,2013-11-11 08:11:00,
2013-11-11 00:16:00,46.7,-6.9,30.03,West,279,0.0,0.0,10,0.00,,,0.00,0,WeatherCatV1.23B16,2013-11-11 08:16:00,
2013-11-11 00:21:00,46.7,-5.0,30.03,West,279,0.0,1.0,11,0.00,,,0.00,0,WeatherCatV1.23B16,2013-11-11 08:21:00,
2013-11-11 00:26:00,46.8,-4.9,30.03,West,279,0.0,0.0,11,0.00,,,0.00,0,WeatherCatV1.23B16,2013-11-11 08:26:00,
2013-11-11 00:31:00,47.1,-4.7,30.03,West,279,0.0,0.0,11,0.00,,,0.00,0,WeatherCatV1.23B16,2013-11-11 08:31:00,
2013-11-11 00:36:00,47.3,0.6,30.03,West,279,1.0,1.0,14,0.00,,,0.00,0,WeatherCatV1.23B16,2013-11-11 08:36:00,
2013-11-11 00:41:00,47.4,0.6,30.03,West,279,0.0,0.0,14,0.00,,,0.00,0,WeatherCatV1.23B16,2013-11-11 08:41:00,
2013-11-11 00:46:00,47.6,3.7,30.03,West,279,0.0,0.0,16,0.00,,,0.00,0,WeatherCatV1.23B16,2013-11-11 08:46:00,
2013-11-11 00:51:00,47.6,2.3,30.03,West,279,0.0,0.0,15,0.00,,,0.00,0,WeatherCatV1.23B16,2013-11-11 08:51:00,
2013-11-11 00:56:00,47.4,3.5,30.03,West,279,0.0,0.0,16,0.00,,,0.00,0,WeatherCatV1.23B16,2013-11-11 08:56:00,
2013-11-11 01:01:00,47.6,3.7,30.03,West,279,0.0,0.0,16,0.00,,,0.00,0,WeatherCatV1.23B16,2013-11-11 09:01:00,
2013-11-11 01:06:00,47.6,3.7,30.03,West,279,0.0,0.0,16,0.00,,,0.00,0,WeatherCatV1.23B16,2013-11-11 09:06:00,
2013-11-11 01:11:00,47.4,3.5,30.03,West,279,1.0,1.0,16,0.00,,,0.00,0,WeatherCatV1.23B16,2013-11-11 09:11:00,
2013-11-11 01:16:00,47.4,4.8,30.04,West,279,0.0,1.0,17,0.00,,,0.00,0,WeatherCatV1.23B16,2013-11-11 09:16:00,
2013-11-11 01:21:00,47.4,0.6,30.04,West,279,0.0,0.0,14,0.00,,,0.00,0,WeatherCatV1.23B16,2013-11-11 09:21:00,
2013-11-11 01:26:00,47.4,2.1,30.04,West,279,0.0,0.0,15,0.00,,,0.00,0,WeatherCatV1.23B16,2013-11-11 09:26:00,
2013-11-11 01:31:00,47.7,2.3,30.04,West,279,2.0,3.0,15,0.00,,,0.00,0,WeatherCatV1.23B16,2013-11-11 09:31:00,
2013-11-11 01:36:00,48.0,2.6,30.04,West,260,1.0,2.0,15,0.00,,,0.00,0,WeatherCatV1.23B16,2013-11-11 09:36:00,
2013-11-11 01:41:00,48.2,1.3,30.04,West,260,1.0,2.0,14,0.00,,,0.00,0,WeatherCatV1.23B16,2013-11-11 09:41:00,
2013-11-11 01:46:00,48.3,-0.2,30.04,West,260,0.0,0.0,13,0.00,,,0.00,0,WeatherCatV1.23B16,2013-11-11 09:46:00,
2013-11-11 01:51:00,48.3,-0.2,30.04,West,260,0.0,0.0,13,0.00,,,0.00,0,WeatherCatV1.23B16,2013-11-11 09:51:00,
2013-11-11 01:56:00,48.3,-0.2,30.04,West,260,0.0,0.0,13,0.00,,,0.00,0,WeatherCatV1.23B16,2013-11-11 09:56:00,
2013-11-11 02:01:00,48.3,-0.2,30.04,West,260,0.0,0.0,13,0.00,,,0.00,0,WeatherCatV1.23B16,2013-11-11 10:01:00,
2013-11-11 02:06:00,48.3,-1.9,30.04,West,260,0.0,0.0,12,0.00,,,0.00,0,WeatherCatV1.23B16,2013-11-11 10:06:00,
2013-11-11 02:12:00,48.2,1.3,30.04,West,260,0.0,2.0,14,0.00,,,0.00,0,WeatherCatV1.23B16,2013-11-11 10:12:00,
2013-11-11 02:17:00,48.2,2.8,30.04,West,260,0.0,0.0,15,0.00,,,0.00,0,WeatherCatV1.23B16,2013-11-11 10:17:00,
2013-11-11 02:22:00,48.2,5.5,30.04,West,260,0.0,0.0,17,0.00,,,0.00,0,WeatherCatV1.23B16,2013-11-11 10:22:00,
2013-11-11 02:27:00,47.9,2.5,30.04,West,260,0.0,0.0,15,0.00,,,0.00,0,WeatherCatV1.23B16,2013-11-11 10:27:00,
2013-11-11 02:32:00,47.6,0.8,30.04,West,260,0.0,0.0,14,0.00,,,0.00,0,WeatherCatV1.23B16,2013-11-11 10:32:00,
2013-11-11 02:37:00,47.3,0.6,30.04,West,260,0.0,2.0,14,0.00,,,0.00,0,WeatherCatV1.23B16,2013-11-11 10:37:00,
2013-11-11 02:42:00,47.1,-1.2,30.04,West,261,2.0,3.0,13,0.00,,,0.00,0,WeatherCatV1.23B16,2013-11-11 10:42:00,
2013-11-11 02:47:00,47.0,0.3,30.06,WNW,283,2.0,4.0,14,0.00,,,0.00,0,WeatherCatV1.23B16,2013-11-11 10:47:00,
2013-11-11 02:52:00,46.8,-3.1,30.06,WNW,288,0.0,4.0,12,0.00,,,0.00,0,WeatherCatV1.23B16,2013-11-11 10:52:00,
2013-11-11 02:57:00,46.8,-1.4,30.06,WNW,288,0.0,0.0,13,0.00,,,0.00,0,WeatherCatV1.23B16,2013-11-11 10:57:00,
2013-11-11 03:02:00,46.8,-1.4,30.06,WNW,288,0.0,0.0,13,0.00,,,0.00,0,WeatherCatV1.23B16,2013-11-11 11:02:00,
2013-11-11 03:07:00,46.8,-1.4,30.06,WNW,288,3.0,3.0,13,0.00,,,0.00,0,WeatherCatV1.23B16,2013-11-11 11:07:00,
2013-11-11 03:12:00,46.8,1.6,30.06,WNW,288,2.0,3.0,15,0.00,,,0.00,0,WeatherCatV1.23B16,2013-11-11 11:12:00,
2013-11-11 03:17:00,46.8,0.2,30.06,WNW,288,0.0,2.0,14,0.00,,,0.00,0,WeatherCatV1.23B16,2013-11-11 11:17:00,
2013-11-11 03:22:00,46.8,-1.4,30.06,WNW,288,1.0,1.0,13,0.00,,,0.00,0,WeatherCatV1.23B16,2013-11-11 11:22:00,
2013-11-11 03:27:00,46.8,0.2,30.06,WNW,288,1.0,1.0,14,0.00,,,0.00,0,WeatherCatV1.23B16,2013-11-11 11:27:00,
2013-11-11 03:32:00,46.7,-1.5,30.06,WNW,288,0.0,1.0,13,0.00,,,0.00,0,WeatherCatV1.23B16,2013-11-11 11:32:00,
2013-11-11 03:37:00,46.8,-3.1,30.06,WNW,288,0.0,0.0,12,0.00,,,0.00,0,WeatherCatV1.23B16,2013-11-11 11:37:00,
2013-11-11 03:42:00,46.8,-4.9,30.06,WNW,288,0.0,0.0,11,0.00,,,0.00,0,WeatherCatV1.23B16,2013-11-11 11:42:00,
2013-11-11 03:47:00,46.8,-4.9,30.06,WNW,288,0.0,0.0,11,0.00,,,0.00,0,WeatherCatV1.23B16,2013-11-11 11:47:00,
2013-11-11 03:52:00,46.8,-4.9,30.06,WNW,288,0.0,0.0,11,0.00,,,0.00,0,WeatherCatV1.23B16,2013-11-11 11:52:00,
2013-11-11 03:57:00,46.8,-1.4,30.06,WNW,288,2.0,2.0,13,0.00,,,0.00,0,WeatherCatV1.23B16,2013-11-11 11:57:00,
2013-11-11 04:02:00,46.8,0.2,30.06,WNW,288,0.0,0.0,14,0.00,,,0.00,0,WeatherCatV1.23B16,2013-11-11 12:02:00,
2013-11-11 04:07:00,46.7,0.1,30.06,WNW,288,0.0,0.0,14,0.00,,,0.00,0,WeatherCatV1.23B16,2013-11-11 12:07:00,
2013-11-11 04:12:00,46.7,-5.0,30.06,WNW,288,0.0,0.0,11,0.00,,,0.00,0,WeatherCatV1.23B16,2013-11-11 12:12:00,
2013-11-11 04:17:00,46.5,-3.3,30.08,WNW,288,0.0,0.0,12,0.00,,,0.00,0,WeatherCatV1.23B16,2013-11-11 12:17:00,
2013-11-11 04:22:00,46.4,1.3,30.08,WNW,288,2.0,2.0,15,0.00,,,0.00,0,WeatherCatV1.23B16,2013-11-11 12:22:00,
2013-11-11 04:27:00,46.2,-0.3,30.08,WNW,288,2.0,5.0,14,0.00,,,0.00,0,WeatherCatV1.23B16,2013-11-11 12:27:00,
2013-11-11 04:32:00,46.0,1.0,30.10,WNW,288,1.0,2.0,15,0.00,,,0.00,0,WeatherCatV1.23B16,2013-11-11 12:32:00,
2013-11-11 04:38:00,45.5,2.0,30.10,WNW,288,0.0,1.0,16,0.00,,,0.00,0,WeatherCatV1.23B16,2013-11-11 12:38:00,
2013-11-11 04:43:00,45.2,0.3,30.10,WNW,288,0.0,0.0,15,0.00,,,0.00,0,WeatherCatV1.23B16,2013-11-11 12:43:00,
2013-11-11 04:48:00,44.8,2.7,30.10,WNW,288,0.0,0.0,17,0.00,,,0.00,0,WeatherCatV1.23B16,2013-11-11 12:48:00,
2013-11-11 04:53:00,44.6,-1.6,30.10,WNW,288,0.0,2.0,14,0.00,,,0.00,0,WeatherCatV1.23B16,2013-11-11 12:53:00,
2013-11-11 04:58:00,44.6,-0.2,30.10,WNW,288,0.0,2.0,15,0.00,,,0.00,0,WeatherCatV1.23B16,2013-11-11 12:58:00,
2013-11-11 05:03:00,44.8,-1.5,30.10,WNW,288,2.0,3.0,14,0.00,,,0.00,0,WeatherCatV1.23B16,2013-11-11 13:03:00,
2013-11-11 05:09:00,45.1,-1.2,30.10,WNW,288,2.0,4.0,14,0.00,,,0.00,0,WeatherCatV1.23B16,2013-11-11 13:09:00,
2013-11-11 05:14:00,45.4,-1.0,30.14,WNW,288,1.0,1.0,14,0.00,,,0.00,0,WeatherCatV1.23B16,2013-11-11 13:14:00,
2013-11-11 05:19:00,45.4,0.5,30.14,WNW,288,0.0,0.0,15,0.00,,,0.00,0,WeatherCatV1.23B16,2013-11-11 13:19:00,
2013-11-11 05:24:00,45.2,1.7,30.14,WNW,288,0.0,0.0,16,0.00,,,0.00,0,WeatherCatV1.23B16,2013-11-11 13:24:00,
2013-11-11 05:29:00,44.9,2.8,30.14,WNW,288,0.0,0.0,17,0.00,,,0.00,0,WeatherCatV1.23B16,2013-11-11 13:29:00,
2013-11-11 05:34:00,44.6,1.2,30.14,WNW,283,2.0,3.0,16,0.00,,,0.00,0,WeatherCatV1.23B16,2013-11-11 13:34:00,
2013-11-11 05:39:00,44.6,1.2,30.14,West,269,1.0,3.0,16,0.00,,,0.00,0,WeatherCatV1.23B16,2013-11-11 13:39:00,
2013-11-11 05:44:00,44.8,1.4,30.14,SW,226,3.0,4.0,16,0.00,,,0.00,0,WeatherCatV1.23B16,2013-11-11 13:44:00,
2013-11-11 05:49:00,44.6,-0.2,30.14,SW,222,0.0,2.0,15,0.00,,,0.00,0,WeatherCatV1.23B16,2013-11-11 13:49:00,
2013-11-11 05:54:00,44.9,-4.6,30.14,SW,222,2.0,3.0,12,0.00,,,0.00,0,WeatherCatV1.23B16,2013-11-11 13:54:00,
2013-11-11 05:59:00,45.2,-4.3,30.14,SW,222,0.0,0.0,12,0.00,,,0.00,0,WeatherCatV1.23B16,2013-11-11 13:59:00,
2013-11-11 06:04:00,45.5,-5.9,30.14,SW,222,0.0,0.0,11,0.00,,,0.00,0,WeatherCatV1.23B16,2013-11-11 14:04:00,
2013-11-11 06:09:00,45.7,-5.8,30.14,SW,222,0.0,0.0,11,0.00,,,0.00,0,WeatherCatV1.23B16,2013-11-11 14:09:00,
2013-11-11 06:14:00,45.8,-2.2,30.15,SW,223,0.0,0.0,13,0.00,,,0.00,0,WeatherCatV1.23B16,2013-11-11 14:14:00,
2013-11-11 06:19:00,45.8,-0.6,30.15,WSW,250,0.0,4.0,14,0.00,,,0.00,0,WeatherCatV1.23B16,2013-11-11 14:19:00,
2013-11-11 06:24:00,45.7,3.4,30.15,WSW,255,0.0,4.0,17,0.00,,,0.00,0,WeatherCatV1.23B16,2013-11-11 14:24:00,
2013-11-11 06:29:00,45.4,3.2,30.15,West,259,4.0,4.0,17,0.00,,,0.00,0,WeatherCatV1.23B16,2013-11-11 14:29:00,
2013-11-11 06:34:00,44.8,3.9,30.16,West,263,1.0,3.0,18,0.00,,,0.00,5,WeatherCatV1.23B16,2013-11-11 14:34:00,
2013-11-11 06:39:00,44.2,16.2,30.16,West,263,0.0,0.0,32,0.00,,,0.00,7,WeatherCatV1.23B16,2013-11-11 14:39:00,
2013-11-11 06:44:00,43.5,17.7,30.16,West,263,0.0,0.0,35,0.00,,,0.00,7,WeatherCatV1.23B16,2013-11-11 14:44:00,
2013-11-11 06:49:00,43.1,3.7,30.16,West,263,0.0,0.0,19,0.00,,,0.00,9,WeatherCatV1.23B16,2013-11-11 14:49:00,
2013-11-11 06:54:00,42.9,3.5,30.16,West,262,0.0,1.0,19,0.00,,,0.00,11,WeatherCatV1.23B16,2013-11-11 14:54:00,
2013-11-11 06:59:00,43.1,3.7,30.17,WSW,243,3.0,3.0,19,0.00,,,0.00,12,WeatherCatV1.23B16,2013-11-11 14:59:00,
2013-11-11 07:04:00,43.3,1.5,30.17,WSW,243,0.0,0.0,17,0.00,,,0.00,18,WeatherCatV1.23B16,2013-11-11 15:04:00,
2013-11-11 07:09:00,43.9,-0.7,30.17,WSW,243,0.0,0.0,15,0.00,,,0.00,23,WeatherCatV1.23B16,2013-11-11 15:09:00,
2013-11-11 07:14:00,44.5,-3.2,30.17,WSW,243,2.0,3.0,13,0.00,,,0.00,25,WeatherCatV1.23B16,2013-11-11 15:14:00,
2013-11-11 07:19:00,45.2,-2.7,30.17,WSW,243,0.0,0.0,13,0.00,,,0.00,28,WeatherCatV1.23B16,2013-11-11 15:19:00,
2013-11-11 07:24:00,45.8,0.8,30.17,SW,219,0.0,0.0,15,0.00,,,0.00,18,WeatherCatV1.23B16,2013-11-11 15:24:00,
2013-11-11 07:29:00,46.1,2.4,30.17,SW,218,0.0,0.0,16,0.00,,,0.00,19,WeatherCatV1.23B16,2013-11-11 15:29:00,
2013-11-11 07:34:00,46.2,2.5,30.16,SW,218,0.0,0.0,16,0.00,,,0.00,18,WeatherCatV1.23B16,2013-11-11 15:34:00,
2013-11-11 07:39:00,46.4,5.2,30.16,SW,214,0.0,1.0,18,0.00,,,0.00,21,WeatherCatV1.23B16,2013-11-11 15:39:00,
2013-11-11 07:44:00,46.5,5.3,30.16,SE,126,2.0,3.0,18,0.00,,,0.00,111,WeatherCatV1.23B16,2013-11-11 15:44:00,
2013-11-11 07:49:00,47.0,4.5,30.16,SE,126,4.0,5.0,17,0.00,,,0.00,127,WeatherCatV1.23B16,2013-11-11 15:49:00,
2013-11-11 07:54:00,47.6,8.5,30.16,SE,135,6.0,7.0,20,0.00,,,0.00,139,WeatherCatV1.23B16,2013-11-11 15:54:00,
2013-11-11 07:59:00,48.0,12.0,30.14,ESE,107,4.0,7.0,23,0.00,,,0.00,155,WeatherCatV1.23B16,2013-11-11 15:59:00,
2013-11-11 08:04:00,48.2,12.2,30.14,ESE,104,7.0,7.0,23,0.00,,,0.00,169,WeatherCatV1.23B16,2013-11-11 16:04:00,
2013-11-11 08:09:00,47.9,11.9,30.14,ESE,105,6.0,11.0,23,0.00,,,0.00,183,WeatherCatV1.23B16,2013-11-11 16:09:00,
2013-11-11 08:14:00,47.4,11.5,30.14,ESE,105,2.0,10.0,23,0.00,,,0.00,197,WeatherCatV1.23B16,2013-11-11 16:14:00,
2013-11-11 08:19:00,47.1,12.2,30.14,ESE,107,4.0,8.0,24,0.00,,,0.00,209,WeatherCatV1.23B16,2013-11-11 16:19:00,
2013-11-11 08:24:00,47.3,12.4,30.14,ESE,113,6.0,7.0,24,0.00,,,0.00,225,WeatherCatV1.23B16,2013-11-11 16:24:00,
2013-11-11 08:29:00,47.6,13.5,30.14,ESE,111,3.0,6.0,25,0.00,,,0.00,239,WeatherCatV1.23B16,2013-11-11 16:29:00,
2013-11-11 08:34:00,47.7,13.6,30.14,ESE,107,4.0,9.0,25,0.00,,,0.00,200,WeatherCatV1.23B16,2013-11-11 16:34:00,
2013-11-11 08:39:00,47.9,13.8,30.14,SE,126,6.0,10.0,25,0.00,,,0.00,272,WeatherCatV1.23B16,2013-11-11 16:39:00,
2013-11-11 08:45:00,48.2,14.9,30.14,ESE,106,5.0,9.0,26,0.00,,,0.00,299,WeatherCatV1.23B16,2013-11-11 16:45:00,
2013-11-11 08:50:00,48.6,15.3,30.14,SE,141,11.0,11.0,26,0.00,,,0.00,320,WeatherCatV1.23B16,2013-11-11 16:50:00,
2013-11-11 08:55:00,48.9,14.6,30.14,ESE,113,3.0,11.0,25,0.00,,,0.00,341,WeatherCatV1.23B16,2013-11-11 16:55:00,
2013-11-11 09:00:00,49.6,12.3,30.12,SE,134,6.0,7.0,22,0.00,,,0.00,360,WeatherCatV1.23B16,2013-11-11 17:00:00,
2013-11-11 09:05:00,50.2,11.8,30.12,ESE,115,5.0,10.0,21,0.00,,,0.00,374,WeatherCatV1.23B16,2013-11-11 17:05:00,
2013-11-11 09:10:00,50.7,8.8,30.12,ESE,108,3.0,11.0,18,0.00,,,0.00,376,WeatherCatV1.23B16,2013-11-11 17:10:00,
2013-11-11 09:15:00,51.3,9.3,30.11,ESE,103,5.0,7.0,18,0.00,,,0.00,373,WeatherCatV1.23B16,2013-11-11 17:15:00,
2013-11-11 09:20:00,51.9,9.8,30.11,ESE,114,0.0,9.0,18,0.00,,,0.00,374,WeatherCatV1.23B16,2013-11-11 17:20:00,
2013-11-11 09:25:00,52.2,10.0,30.11,SE,126,3.0,10.0,18,0.00,,,0.00,376,WeatherCatV1.23B16,2013-11-11 17:25:00,
2013-11-11 09:30:00,52.6,10.3,30.09,SE,126,5.0,6.0,18,0.00,,,0.00,397,WeatherCatV1.23B16,2013-11-11 17:30:00,
2013-11-11 09:35:00,53.2,9.5,30.09,East,101,3.0,5.0,17,0.00,,,0.00,410,WeatherCatV1.23B16,2013-11-11 17:35:00,
2013-11-11 09:40:00,53.6,8.5,30.09,ESE,117,3.0,5.0,16,0.00,,,0.00,367,WeatherCatV1.23B16,2013-11-11 17:40:00,
2013-11-11 09:45:00,53.8,10.0,30.10,ESE,110,1.0,1.0,17,0.00,,,0.00,438,WeatherCatV1.23B16,2013-11-11 17:45:00,
2013-11-11 09:50:00,53.3,15.4,30.10,West,270,2.0,7.0,22,0.00,,,0.00,452,WeatherCatV1.23B16,2013-11-11 17:50:00,
2013-11-11 09:55:00,52.3,15.6,30.10,WNW,283,4.0,9.0,23,0.00,,,0.00,469,WeatherCatV1.23B16,2013-11-11 17:55:00,
2013-11-11 10:00:00,51.1,12.6,30.13,WNW,283,3.0,5.0,21,0.00,,,0.00,492,WeatherCatV1.23B16,2013-11-11 18:00:00,
2013-11-11 10:05:00,50.2,13.9,30.13,NW,306,3.0,6.0,23,0.00,,,0.00,489,WeatherCatV1.23B16,2013-11-11 18:05:00,
2013-11-11 10:10:00,49.8,14.5,30.13,WNW,288,2.0,2.0,24,0.00,,,0.00,519,WeatherCatV1.23B16,2013-11-11 18:10:00,
2013-11-11 10:15:00,49.8,13.5,30.14,WNW,288,0.0,0.0,23,0.00,,,0.00,541,WeatherCatV1.23B16,2013-11-11 18:15:00,
2013-11-11 10:20:00,50.4,12.0,30.14,WNW,288,1.0,3.0,21,0.00,,,0.00,520,WeatherCatV1.23B16,2013-11-11 18:20:00,
2013-11-11 10:25:00,51.6,4.0,30.14,WNW,288,0.0,0.0,14,0.00,,,0.00,519,WeatherCatV1.23B16,2013-11-11 18:25:00,
2013-11-11 10:30:00,52.6,7.7,30.13,WNW,293,0.0,0.0,16,0.00,,,0.00,461,WeatherCatV1.23B16,2013-11-11 18:30:00,
2013-11-11 10:35:00,54.1,12.8,30.13,SSW,209,0.0,4.0,19,0.00,,,0.00,385,WeatherCatV1.23B16,2013-11-11 18:35:00,
2013-11-11 10:40:00,55.4,13.9,30.13,SSW,209,0.0,0.0,19,0.00,,,0.00,538,WeatherCatV1.23B16,2013-11-11 18:40:00,
2013-11-11 10:45:00,56.5,10.9,30.10,SSW,211,0.0,0.0,16,0.00,,,0.00,534,WeatherCatV1.23B16,2013-11-11 18:45:00,
2013-11-11 10:50:00,57.0,16.3,30.10,SW,226,3.0,4.0,20,0.00,,,0.00,543,WeatherCatV1.23B16,2013-11-11 18:50:00,
2013-11-11 10:55:00,57.0,19.6,30.10,WNW,283,4.0,7.0,23,0.00,,,0.00,504,WeatherCatV1.23B16,2013-11-11 18:55:00,
2013-11-11 11:00:00,56.2,20.9,30.08,West,279,9.0,10.0,25,0.00,,,0.00,527,WeatherCatV1.23B16,2013-11-11 19:00:00,
2013-11-11 11:05:00,55.0,21.6,30.08,West,279,4.0,8.0,27,0.00,,,0.00,492,WeatherCatV1.23B16,2013-11-11 19:05:00,
2013-11-11 11:10:00,53.9,21.6,30.08,WNW,283,4.0,5.0,28,0.00,,,0.00,570,WeatherCatV1.23B16,2013-11-11 19:10:00,
2013-11-11 11:15:00,53.2,21.0,30.11,WNW,288,5.0,7.0,28,0.00,,,0.00,568,WeatherCatV1.23B16,2013-11-11 19:15:00,
2013-11-11 11:20:00,52.8,20.6,30.11,WNW,288,3.0,5.0,28,0.00,,,0.00,454,WeatherCatV1.23B16,2013-11-11 19:20:00,
2013-11-11 11:25:00,52.5,20.4,30.11,WNW,297,3.0,6.0,28,0.00,,,0.00,508,WeatherCatV1.23B16,2013-11-11 19:25:00,
2013-11-11 11:30:00,52.5,20.4,30.11,West,277,3.0,3.0,28,0.00,,,0.00,545,WeatherCatV1.23B16,2013-11-11 19:30:00,
2013-11-11 11:36:00,52.8,20.6,30.11,West,279,0.0,4.0,28,0.00,,,0.00,464,WeatherCatV1.23B16,2013-11-11 19:36:00,
2013-11-11 11:41:00,52.9,20.7,30.11,WNW,283,3.0,5.0,28,0.00,,,0.00,466,WeatherCatV1.23B16,2013-11-11 19:41:00,
2013-11-11 11:46:00,53.3,20.2,30.10,West,267,5.0,5.0,27,0.00,,,0.00,408,WeatherCatV1.23B16,2013-11-11 19:46:00,
2013-11-11 11:51:00,53.5,20.4,30.10,WNW,297,4.0,6.0,27,0.00,,,0.00,209,WeatherCatV1.23B16,2013-11-11 19:51:00,
2013-11-11 11:56:00,53.3,20.2,30.10,WNW,283,5.0,7.0,27,0.00,,,0.00,239,WeatherCatV1.23B16,2013-11-11 19:56:00,
2013-11-11 12:01:00,53.1,20.9,30.10,WNW,288,4.0,5.0,28,0.00,,,0.00,274,WeatherCatV1.23B16,2013-11-11 20:01:00,
2013-11-11 12:06:00,52.8,19.8,30.10,WNW,293,6.0,7.0,27,0.00,,,0.00,401,WeatherCatV1.23B16,2013-11-11 20:06:00,
2013-11-11 12:11:00,52.6,20.4,30.10,WNW,283,5.0,8.0,28,0.00,,,0.00,656,WeatherCatV1.23B16,2013-11-11 20:11:00,
2013-11-11 12:16:00,52.8,20.6,30.10,WNW,293,10.0,11.0,28,0.00,,,0.00,536,WeatherCatV1.23B16,2013-11-11 20:16:00,
2013-11-11 12:21:00,52.9,19.8,30.10,NW,308,5.0,9.0,27,0.00,,,0.00,367,WeatherCatV1.23B16,2013-11-11 20:21:00,
2013-11-11 12:26:00,53.1,20.0,30.10,WNW,283,4.0,7.0,27,0.00,,,0.00,445,WeatherCatV1.23B16,2013-11-11 20:26:00,
2013-11-11 12:31:00,53.3,20.2,30.09,NW,306,4.0,10.0,27,0.00,,,0.00,578,WeatherCatV1.23B16,2013-11-11 20:31:00,
2013-11-11 12:36:00,53.9,19.8,30.09,WNW,300,5.0,8.0,26,0.00,,,0.00,703,WeatherCatV1.23B16,2013-11-11 20:36:00,
2013-11-11 12:41:00,54.2,20.1,30.09,West,261,6.0,10.0,26,0.00,,,0.00,578,WeatherCatV1.23B16,2013-11-11 20:41:00,
2013-11-11 12:46:00,54.5,20.3,30.09,West,275,10.0,10.0,26,0.00,,,0.00,424,WeatherCatV1.23B16,2013-11-11 20:46:00,
2013-11-11 12:51:00,54.8,20.6,30.09,WNW,297,5.0,7.0,26,0.00,,,0.00,580,WeatherCatV1.23B16,2013-11-11 20:51:00,
2013-11-11 12:56:00,55.1,18.0,30.09,WNW,288,5.0,9.0,23,0.00,,,0.00,728,WeatherCatV1.23B16,2013-11-11 20:56:00,
2013-11-11 13:01:00,55.7,17.5,30.07,WNW,297,2.0,5.0,22,0.00,,,0.00,489,WeatherCatV1.23B16,2013-11-11 21:01:00,
2013-11-11 13:06:00,56.2,15.7,30.07,West,265,5.0,7.0,20,0.00,,,0.00,432,WeatherCatV1.23B16,2013-11-11 21:06:00,
2013-11-11 13:11:00,56.3,16.9,30.07,WNW,288,6.0,7.0,21,0.00,,,0.00,410,WeatherCatV1.23B16,2013-11-11 21:11:00,
2013-11-11 13:16:00,56.6,18.2,30.05,West,272,0.0,6.0,22,0.00,,,0.00,510,WeatherCatV1.23B16,2013-11-11 21:16:00,
2013-11-11 13:21:00,57.0,17.5,30.05,WNW,288,0.0,6.0,21,0.00,,,0.00,580,WeatherCatV1.23B16,2013-11-11 21:21:00,
2013-11-11 13:26:00,57.3,16.6,30.05,WNW,293,2.0,5.0,20,0.00,,,0.00,258,WeatherCatV1.23B16,2013-11-11 21:26:00,
2013-11-11 13:31:00,57.5,17.9,30.05,West,267,3.0,4.0,21,0.00,,,0.00,420,WeatherCatV1.23B16,2013-11-11 21:31:00,
2013-11-11 13:36:00,57.5,17.9,30.05,WNW,293,3.0,6.0,21,0.00,,,0.00,438,WeatherCatV1.23B16,2013-11-11 21:36:00,
2013-11-11 13:41:00,57.5,17.9,30.05,WNW,302,6.0,7.0,21,0.00,,,0.00,332,WeatherCatV1.23B16,2013-11-11 21:41:00,
2013-11-11 13:46:00,57.2,19.8,30.05,NW,314,7.0,10.0,23,0.00,,,0.00,239,WeatherCatV1.23B16,2013-11-11 21:46:00,
2013-11-11 13:51:00,57.0,18.5,30.05,WNW,283,6.0,7.0,22,0.00,,,0.00,387,WeatherCatV1.23B16,2013-11-11 21:51:00,
2013-11-11 13:56:00,56.7,18.3,30.05,NW,310,6.0,7.0,22,0.00,,,0.00,223,WeatherCatV1.23B16,2013-11-11 21:56:00,
2013-11-11 14:01:00,56.5,18.1,30.05,WNW,293,6.0,8.0,22,0.00,,,0.00,330,WeatherCatV1.23B16,2013-11-11 22:01:00,
2013-11-11 14:06:00,56.3,20.0,30.05,West,269,4.0,8.0,24,0.00,,,0.00,417,WeatherCatV1.23B16,2013-11-11 22:06:00,
2013-11-11 14:11:00,56.2,18.9,30.05,West,278,5.0,9.0,23,0.00,,,0.00,346,WeatherCatV1.23B16,2013-11-11 22:11:00,
2013-11-11 14:16:00,56.2,17.9,30.06,WNW,299,4.0,8.0,22,0.00,,,0.00,81,WeatherCatV1.23B16,2013-11-11 22:16:00,
2013-11-11 14:21:00,56.0,18.7,30.06,NW,311,2.0,9.0,23,0.00,,,0.00,65,WeatherCatV1.23B16,2013-11-11 22:21:00,
2013-11-11 14:26:00,55.7,19.5,30.06,West,271,0.0,3.0,24,0.00,,,0.00,58,WeatherCatV1.23B16,2013-11-11 22:26:00,
2013-11-11 14:31:00,55.6,20.4,30.06,West,278,2.0,3.0,25,0.00,,,0.00,128,WeatherCatV1.23B16,2013-11-11 22:31:00,
2013-11-11 14:36:00,55.6,20.4,30.06,West,278,0.0,1.0,25,0.00,,,0.00,49,WeatherCatV1.23B16,2013-11-11 22:36:00,
2013-11-11 14:41:00,55.6,20.4,30.06,WNW,293,1.0,4.0,25,0.00,,,0.00,49,WeatherCatV1.23B16,2013-11-11 22:41:00,
2013-11-11 14:46:00,55.6,20.4,30.06,WNW,293,2.0,4.0,25,0.00,,,0.00,47,WeatherCatV1.23B16,2013-11-11 22:46:00,
2013-11-11 14:51:00,55.6,19.4,30.06,WNW,293,1.0,4.0,24,0.00,,,0.00,49,WeatherCatV1.23B16,2013-11-11 22:51:00,
2013-11-11 14:56:00,55.6,18.4,30.06,WNW,293,0.0,0.0,23,0.00,,,0.00,58,WeatherCatV1.23B16,2013-11-11 22:56:00,
2013-11-11 15:01:00,55.6,19.4,30.06,WNW,293,0.0,0.0,24,0.00,,,0.00,56,WeatherCatV1.23B16,2013-11-11 23:01:00,
2013-11-11 15:06:00,55.4,18.2,30.06,WNW,293,0.0,0.0,23,0.00,,,0.00,72,WeatherCatV1.23B16,2013-11-11 23:06:00,
2013-11-11 15:11:00,55.3,18.1,30.06,WNW,293,0.0,0.0,23,0.00,,,0.00,76,WeatherCatV1.23B16,2013-11-11 23:11:00,
2013-11-11 15:16:00,55.3,21.0,30.06,WNW,293,0.0,0.0,26,0.00,,,0.00,77,WeatherCatV1.23B16,2013-11-11 23:16:00,
2013-11-11 15:21:00,55.1,18.0,30.06,WNW,297,0.0,0.0,23,0.00,,,0.00,72,WeatherCatV1.23B16,2013-11-11 23:21:00,
2013-11-11 15:26:00,54.7,13.3,30.06,SW,224,0.0,0.0,19,0.00,,,0.00,70,WeatherCatV1.23B16,2013-11-11 23:26:00,
2013-11-11 15:31:00,54.4,11.8,30.08,ESE,123,2.0,5.0,18,0.00,,,0.00,65,WeatherCatV1.23B16,2013-11-11 23:31:00,
2013-11-11 15:36:00,54.1,11.6,30.08,ESE,103,1.0,2.0,18,0.00,,,0.00,54,WeatherCatV1.23B16,2013-11-11 23:36:00,
2013-11-11 15:41:00,53.9,11.4,30.08,East,97,0.0,2.0,18,0.00,,,0.00,53,WeatherCatV1.23B16,2013-11-11 23:41:00,
2013-11-11 15:46:00,53.8,11.3,30.09,East,97,0.0,2.0,18,0.00,,,0.00,51,WeatherCatV1.23B16,2013-11-11 23:46:00,
2013-11-11 15:51:00,53.6,14.6,30.09,East,98,0.0,3.0,21,0.00,,,0.00,49,WeatherCatV1.23B16,2013-11-11 23:51:00,
2013-11-11 15:56:00,53.5,13.4,30.09,East,98,0.0,3.0,20,0.00,,,0.00,49,WeatherCatV1.23B16,2013-11-11 23:56:00,
2013-11-11 16:01:00,53.2,10.8,30.09,East,98,0.0,2.0,18,0.00,,,0.00,49,WeatherCatV1.23B16,2013-11-12 00:01:00,
2013-11-11 16:06:00,53.1,13.1,30.09,East,98,0.0,2.0,20,0.00,,,0.00,44,WeatherCatV1.23B16,2013-11-12 00:06:00,
2013-11-11 16:11:00,52.9,11.8,30.09,East,98,0.0,2.0,19,0.00,,,0.00,37,WeatherCatV1.23B16,2013-11-12 00:11:00,
2013-11-11 16:16:00,52.8,10.5,30.11,East,98,0.0,3.0,18,0.00,,,0.00,30,WeatherCatV1.23B16,2013-11-12 00:16:00,
2013-11-11 16:21:00,52.6,9.1,30.11,East,98,0.0,0.0,17,0.00,,,0.00,25,WeatherCatV1.23B16,2013-11-12 00:21:00,
2013-11-11 16:26:00,52.5,9.0,30.11,East,98,0.0,3.0,17,0.00,,,0.00,19,WeatherCatV1.23B16,2013-11-12 00:26:00,
2013-11-11 16:31:00,52.5,9.0,30.11,East,98,0.0,0.0,17,0.00,,,0.00,16,WeatherCatV1.23B16,2013-11-12 00:31:00,
2013-11-11 16:36:00,52.5,10.2,30.11,East,98,0.0,1.0,18,0.00,,,0.00,11,WeatherCatV1.23B16,2013-11-12 00:36:00,
2013-11-11 16:41:00,52.3,8.8,30.11,East,98,0.0,1.0,17,0.00,,,0.00,5,WeatherCatV1.23B16,2013-11-12 00:41:00,
2013-11-11 16:47:00,52.3,8.8,30.13,East,98,0.0,0.0,17,0.00,,,0.00,0,WeatherCatV1.23B16,2013-11-12 00:47:00,
2013-11-11 16:52:00,52.2,10.0,30.13,East,98,0.0,1.0,18,0.00,,,0.00,0,WeatherCatV1.23B16,2013-11-12 00:52:00,
2013-11-11 16:57:00,51.9,9.8,30.13,East,98,1.0,3.0,18,0.00,,,0.00,0,WeatherCatV1.23B16,2013-11-12 00:57:00,
2013-11-11 17:02:00,51.7,9.6,30.13,East,98,2.0,2.0,18,0.00,,,0.00,0,WeatherCatV1.23B16,2013-11-12 01:02:00,
2013-11-11 17:07:00,51.6,9.5,30.13,East,98,0.0,0.0,18,0.00,,,0.00,0,WeatherCatV1.23B16,2013-11-12 01:07:00,
2013-11-11 17:12:00,51.4,9.3,30.13,East,97,0.0,0.0,18,0.00,,,0.00,0,WeatherCatV1.23B16,2013-11-12 01:12:00,
2013-11-11 17:17:00,51.3,9.3,30.13,East,97,0.0,0.0,18,0.00,,,0.00,0,WeatherCatV1.23B16,2013-11-12 01:17:00,
2013-11-11 17:22:00,51.1,9.1,30.13,East,98,0.0,0.0,18,0.00,,,0.00,0,WeatherCatV1.23B16,2013-11-12 01:22:00,
2013-11-11 17:27:00,51.0,9.0,30.13,East,98,0.0,0.0,18,0.00,,,0.00,0,WeatherCatV1.23B16,2013-11-12 01:27:00,
2013-11-11 17:32:00,51.0,7.8,30.14,East,98,2.0,3.0,17,0.00,,,0.00,0,WeatherCatV1.23B16,2013-11-12 01:32:00,
2013-11-11 17:37:00,50.8,7.6,30.14,East,98,0.0,1.0,17,0.00,,,0.00,0,WeatherCatV1.23B16,2013-11-12 01:37:00,
2013-11-11 17:42:00,50.8,7.6,30.14,East,98,0.0,0.0,17,0.00,,,0.00,0,WeatherCatV1.23B16,2013-11-12 01:42:00,
2013-11-11 17:47:00,51.0,7.8,30.15,East,98,0.0,2.0,17,0.00,,,0.00,0,WeatherCatV1.23B16,2013-11-12 01:47:00,
2013-11-11 17:52:00,51.0,7.8,30.15,East,98,0.0,0.0,17,0.00,,,0.00,0,WeatherCatV1.23B16,2013-11-12 01:52:00,
2013-11-11 17:57:00,51.1,7.8,30.15,East,98,0.0,0.0,17,0.00,,,0.00,0,WeatherCatV1.23B16,2013-11-12 01:57:00,
2013-11-11 18:02:00,51.1,7.8,30.15,East,98,0.0,0.0,17,0.00,,,0.00,0,WeatherCatV1.23B16,2013-11-12 02:02:00,
2013-11-11 18:07:00,51.3,9.3,30.15,East,98,0.0,0.0,18,0.00,,,0.00,0,WeatherCatV1.23B16,2013-11-12 02:07:00,
2013-11-11 18:12:00,51.3,10.5,30.15,East,98,0.0,0.0,19,0.00,,,0.00,0,WeatherCatV1.23B16,2013-11-12 02:12:00,
2013-11-11 18:17:00,51.3,9.3,30.16,East,98,0.0,0.0,18,0.00,,,0.00,0,WeatherCatV1.23B16,2013-11-12 02:17:00,
2013-11-11 18:22:00,51.3,10.5,30.16,East,98,0.0,0.0,19,0.00,,,0.00,0,WeatherCatV1.23B16,2013-11-12 02:22:00,
2013-11-11 18:27:00,51.1,11.4,30.16,ESE,115,0.0,0.0,20,0.00,,,0.00,0,WeatherCatV1.23B16,2013-11-12 02:27:00,
2013-11-11 18:32:00,51.1,11.4,30.17,SSE,159,3.0,5.0,20,0.00,,,0.00,0,WeatherCatV1.23B16,2013-11-12 02:32:00,
2013-11-11 18:37:00,51.1,11.4,30.17,SSE,160,0.0,3.0,20,0.00,,,0.00,0,WeatherCatV1.23B16,2013-11-12 02:37:00,
2013-11-11 18:42:00,51.0,11.4,30.17,SSE,159,0.0,0.0,20,0.00,,,0.00,0,WeatherCatV1.23B16,2013-11-12 02:42:00,
2013-11-11 18:47:00,51.0,11.4,30.17,SSE,159,0.0,0.0,20,0.00,,,0.00,0,WeatherCatV1.23B16,2013-11-12 02:47:00,
2013-11-11 18:52:00,50.8,11.2,30.17,SSE,160,1.0,1.0,20,0.00,,,0.00,0,WeatherCatV1.23B16,2013-11-12 02:52:00,
2013-11-11 18:57:00,50.8,12.3,30.17,SSE,160,0.0,2.0,21,0.00,,,0.00,0,WeatherCatV1.23B16,2013-11-12 02:57:00,
2013-11-11 19:02:00,50.8,12.3,30.18,SSE,160,0.0,0.0,21,0.00,,,0.00,0,WeatherCatV1.23B16,2013-11-12 03:02:00,
2013-11-11 19:07:00,50.7,12.2,30.18,SSE,159,0.0,0.0,21,0.00,,,0.00,0,WeatherCatV1.23B16,2013-11-12 03:07:00,
2013-11-11 19:12:00,50.7,12.2,30.18,SSE,160,1.0,3.0,21,0.00,,,0.00,0,WeatherCatV1.23B16,2013-11-12 03:12:00,
2013-11-11 19:17:00,50.7,11.1,30.15,SSE,159,0.0,0.0,20,0.00,,,0.00,0,WeatherCatV1.23B16,2013-11-12 03:17:00,
2013-11-11 19:22:00,50.7,11.1,30.15,SSE,159,0.0,0.0,20,0.00,,,0.00,0,WeatherCatV1.23B16,2013-11-12 03:22:00,
2013-11-11 19:27:00,50.5,10.9,30.15,SSE,158,1.0,1.0,20,0.00,,,0.00,0,WeatherCatV1.23B16,2013-11-12 03:27:00,
2013-11-11 19:32:00,50.8,11.2,30.15,SSE,157,0.0,0.0,20,0.00,,,0.00,0,WeatherCatV1.23B16,2013-11-12 03:32:00,
2013-11-11 19:37:00,51.1,9.1,30.15,SSE,156,0.0,0.0,18,0.00,,,0.00,0,WeatherCatV1.23B16,2013-11-12 03:37:00,
2013-11-11 19:42:00,51.3,9.3,30.15,SSE,157,0.0,1.0,18,0.00,,,0.00,0,WeatherCatV1.23B16,2013-11-12 03:42:00,
2013-11-11 19:47:00,51.4,9.3,30.15,NNE,14,3.0,5.0,18,0.00,,,0.00,0,WeatherCatV1.23B16,2013-11-12 03:47:00,
2013-11-11 19:52:00,51.6,9.5,30.15,NNE,14,0.0,0.0,18,0.00,,,0.00,0,WeatherCatV1.23B16,2013-11-12 03:52:00,
2013-11-11 19:57:00,51.4,8.1,30.15,NNE,14,0.0,1.0,17,0.00,,,0.00,0,WeatherCatV1.23B16,2013-11-12 03:57:00,
2013-11-11 20:02:00,52.0,7.2,30.14,NNE,14,0.0,0.0,16,0.00,,,0.00,0,WeatherCatV1.23B16,2013-11-12 04:02:00,
2013-11-11 20:08:00,51.9,8.5,30.14,NNE,19,0.0,4.0,17,0.00,,,0.00,0,WeatherCatV1.23B16,2013-11-12 04:08:00,
2013-11-11 20:13:00,52.0,7.2,30.14,NNE,19,0.0,0.0,16,0.00,,,0.00,0,WeatherCatV1.23B16,2013-11-12 04:13:00,
2013-11-11 20:18:00,52.2,6.0,30.12,NNE,20,0.0,2.0,15,0.00,,,0.00,0,WeatherCatV1.23B16,2013-11-12 04:18:00,
2013-11-11 20:23:00,52.3,6.1,30.12,NNE,20,0.0,0.0,15,0.00,,,0.00,0,WeatherCatV1.23B16,2013-11-12 04:23:00,
2013-11-11 20:28:00,52.3,6.1,30.12,NNE,20,0.0,3.0,15,0.00,,,0.00,0,WeatherCatV1.23B16,2013-11-12 04:28:00,
2013-11-11 20:33:00,52.6,6.3,30.12,NNE,20,0.0,2.0,15,0.00,,,0.00,0,WeatherCatV1.23B16,2013-11-12 04:33:00,
2013-11-11 20:38:00,52.6,6.3,30.12,NNE,20,0.0,0.0,15,0.00,,,0.00,0,WeatherCatV1.23B16,2013-11-12 04:38:00,
2013-11-11 20:43:00,52.5,6.2,30.12,NNE,20,0.0,0.0,15,0.00,,,0.00,0,WeatherCatV1.23B16,2013-11-12 04:43:00,
2013-11-11 20:48:00,52.3,6.1,30.13,NNE,20,0.0,1.0,15,0.00,,,0.00,0,WeatherCatV1.23B16,2013-11-12 04:48:00,
2013-11-11 20:53:00,52.2,6.0,30.13,NNE,20,0.0,0.0,15,0.00,,,0.00,0,WeatherCatV1.23B16,2013-11-12 04:53:00,
2013-11-11 20:58:00,52.0,5.8,30.13,NNE,20,0.0,3.0,15,0.00,,,0.00,0,WeatherCatV1.23B16,2013-11-12 04:58:00,
2013-11-11 21:01:00,52.0,7.2,30.13,NNE,19,3.0,4.0,16,0.00,,,0.00,0,WeatherCatV1.23B16,2013-11-12 05:01:00,
2013-11-11 21:02:00,52.0,7.2,30.13,North,6,3.0,4.0,16,0.00,,,0.00,0,WeatherCatV1.23B16,2013-11-12 05:02:00,
2013-11-11 21:03:00,52.0,7.2,30.13,North,6,0.0,3.0,16,0.00,,,0.00,0,WeatherCatV1.23B16,2013-11-12 05:03:00,
2013-11-11 21:04:00,52.0,7.2,30.13,North,6,1.0,2.0,16,0.00,,,0.00,0,WeatherCatV1.23B16,2013-11-12 05:04:00,
2013-11-11 21:07:00,51.9,7.2,30.13,North,6,0.0,0.0,16,0.00,,,0.00,0,WeatherCatV1.23B16,2013-11-12 05:07:00,
2013-11-11 21:12:00,51.7,5.6,30.13,South,187,3.0,6.0,15,0.00,,,0.00,0,WeatherCatV1.23B16,2013-11-12 05:12:00,
2013-11-11 21:13:00,51.7,5.6,30.13,South,186,2.0,6.0,15,0.00,,,0.00,0,WeatherCatV1.23B16,2013-11-12 05:13:00,
2013-11-11 21:18:00,51.9,4.2,30.13,SSW,193,0.0,9.0,14,0.00,,,0.00,0,WeatherCatV1.23B16,2013-11-12 05:18:00,
2013-11-11 21:23:00,52.0,5.8,30.13,South,172,0.0,1.0,15,0.00,,,0.00,0,WeatherCatV1.23B16,2013-11-12 05:23:00,
2013-11-11 21:28:00,52.3,3.0,30.13,South,183,0.0,10.0,13,0.00,,,0.00,0,WeatherCatV1.23B16,2013-11-12 05:28:00,
2013-11-11 21:33:00,52.8,3.3,30.13,SW,230,3.0,4.0,13,0.00,,,0.00,0,WeatherCatV1.23B16,2013-11-12 05:33:00,
2013-11-11 21:38:00,52.9,3.4,30.13,South,182,0.0,0.0,13,0.00,,,0.00,0,WeatherCatV1.23B16,2013-11-12 05:38:00,
2013-11-11 21:43:00,53.1,3.6,30.13,South,182,0.0,0.0,13,0.00,,,0.00,0,WeatherCatV1.23B16,2013-11-12 05:43:00,
2013-11-11 21:48:00,53.2,5.3,30.12,South,182,0.0,0.0,14,0.00,,,0.00,0,WeatherCatV1.23B16,2013-11-12 05:48:00,
2013-11-11 21:53:00,53.2,5.3,30.12,South,189,3.0,3.0,14,0.00,,,0.00,0,WeatherCatV1.23B16,2013-11-12 05:53:00,
2013-11-11 21:58:00,53.1,5.2,30.12,WSW,238,2.0,4.0,14,0.00,,,0.00,0,WeatherCatV1.23B16,2013-11-12 05:58:00,
2013-11-11 22:03:00,52.9,5.0,30.13,West,278,0.0,4.0,14,0.00,,,0.00,0,WeatherCatV1.23B16,2013-11-12 06:03:00,
2013-11-11 22:08:00,52.8,6.5,30.13,WNW,293,1.0,4.0,15,0.00,,,0.00,0,WeatherCatV1.23B16,2013-11-12 06:08:00,
2013-11-11 22:13:00,52.6,6.3,30.13,WNW,293,2.0,3.0,15,0.00,,,0.00,0,WeatherCatV1.23B16,2013-11-12 06:13:00,
2013-11-11 22:18:00,52.5,6.2,30.10,WNW,293,3.0,3.0,15,0.00,,,0.00,0,WeatherCatV1.23B16,2013-11-12 06:18:00,
2013-11-11 22:23:00,52.2,6.0,30.10,WNW,293,2.0,4.0,15,0.00,,,0.00,0,WeatherCatV1.23B16,2013-11-12 06:23:00,
2013-11-11 22:28:00,51.9,5.7,30.10,WNW,293,2.0,3.0,15,0.00,,,0.00,0,WeatherCatV1.23B16,2013-11-12 06:28:00,
2013-11-11 22:33:00,51.7,7.0,30.10,WNW,293,4.0,5.0,16,0.00,,,0.00,0,WeatherCatV1.23B16,2013-11-12 06:33:00,
2013-11-11 22:38:00,51.6,6.9,30.10,WNW,293,4.0,4.0,16,0.00,,,0.00,0,WeatherCatV1.23B16,2013-11-12 06:38:00,
2013-11-11 22:43:00,51.3,6.7,30.10,WNW,303,4.0,7.0,16,0.00,,,0.00,0,WeatherCatV1.23B16,2013-11-12 06:43:00,
2013-11-11 22:48:00,51.1,6.5,30.12,NW,304,0.0,4.0,16,0.00,,,0.00,0,WeatherCatV1.23B16,2013-11-12 06:48:00,
2013-11-11 22:53:00,51.0,7.8,30.12,WNW,303,1.0,5.0,17,0.00,,,0.00,0,WeatherCatV1.23B16,2013-11-12 06:53:00,
2013-11-11 22:58:00,50.8,6.2,30.12,South,170,0.0,5.0,16,0.00,,,0.00,0,WeatherCatV1.23B16,2013-11-12 06:58:00,
2013-11-11 23:03:00,50.8,6.2,30.11,South,170,0.0,0.0,16,0.00,,,0.00,0,WeatherCatV1.23B16,2013-11-12 07:03:00,
2013-11-11 23:08:00,50.8,6.2,30.11,SSW,195,0.0,4.0,16,0.00,,,0.00,0,WeatherCatV1.23B16,2013-11-12 07:08:00,
2013-11-11 23:13:00,50.8,6.2,30.11,West,266,0.0,3.0,16,0.00,,,0.00,0,WeatherCatV1.23B16,2013-11-12 07:13:00,
2013-11-11 23:18:00,50.8,7.6,30.13,WNW,283,3.0,5.0,17,0.00,,,0.00,0,WeatherCatV1.23B16,2013-11-12 07:18:00,
2013-11-11 23:23:00,50.8,7.6,30.13,WNW,283,6.0,9.0,17,0.00,,,0.00,0,WeatherCatV1.23B16,2013-11-12 07:23:00,
2013-11-11 23:28:00,50.7,8.8,30.13,WNW,293,0.0,4.0,18,0.00,,,0.00,0,WeatherCatV1.23B16,2013-11-12 07:28:00,
2013-11-11 23:33:00,50.5,8.6,30.13,WNW,303,2.0,4.0,18,0.00,,,0.00,0,WeatherCatV1.23B16,2013-11-12 07:33:00,
2013-11-11 23:38:00,50.2,8.4,30.13,West,276,4.0,4.0,18,0.00,,,0.00,0,WeatherCatV1.23B16,2013-11-12 07:38:00,
2013-11-11 23:43:00,49.9,9.3,30.13,WSW,251,0.0,5.0,19,0.00,,,0.00,0,WeatherCatV1.23B16,2013-11-12 07:43:00,
2013-11-11 23:48:00,49.8,10.4,30.14,WNW,293,6.0,7.0,20,0.00,,,0.00,0,WeatherCatV1.23B16,2013-11-12 07:48:00,
2013-11-11 23:53:00,49.6,10.2,30.14,West,272,1.0,5.0,20,0.00,,,0.00,0,WeatherCatV1.23B16,2013-11-12 07:53:00,
2013-11-11 23:58:00,49.5,9.0,30.14,SW,230,2.0,3.0,19,0.00,,,0.00,0,WeatherCatV1.23B16,2013-11-12 07:58:00,